This is the latest recevied weather packets stored in our database for station/object WZ9ZZZ-1. If no packets are shown the sender has not sent any weather packets the latest 10 day(s).
| Time | Temp. | Humidity | Pressure | Rain* | Wind** | Luminosity | Snow |
|---|---|---|---|---|---|---|---|
| 1777900971 | 21.11° C | 71% | 1019.5 hPa | 0 mm | - | 149 W/m² | - |
| 1777900668 | 21.67° C | 70% | 1019.4 hPa | 0 mm | - | 153 W/m² | - |
| 1777900366 | 21.11° C | 71% | 1019.3 hPa | 0 mm | - | 149 W/m² | - |
| 1777900063 | 20.56° C | 72% | 1019.5 hPa | 0 mm | - | 115 W/m² | - |
| 1777899758 | 20.56° C | 72% | 1019.5 hPa | 0 mm | - | 71 W/m² | - |
| 1777899455 | 20° C | 74% | 1019.2 hPa | 0 mm | - | 101 W/m² | - |
| 1777899154 | 19.44° C | 75% | 1019.3 hPa | 0 mm | - | 55 W/m² | - |
| 1777898851 | 18.89° C | 75% | 1019.3 hPa | 0 mm | - | 50 W/m² | - |
| 1777898548 | 18.33° C | 76% | 1019.4 hPa | 0 mm | - | 49 W/m² | - |
| 1777898246 | 18.33° C | 77% | 1019.6 hPa | 0 mm | - | 48 W/m² | - |
| 1777897943 | 17.78° C | 78% | 1019.4 hPa | 0 mm | - | 39 W/m² | - |
| 1777897639 | 17.78° C | 78% | 1019.4 hPa | 0 mm | - | 35 W/m² | - |
| 1777897335 | 17.78° C | 78% | 1019.4 hPa | 0 mm | - | 30 W/m² | - |
| 1777897031 | 17.22° C | 79% | 1019.3 hPa | 0 mm | - | 24 W/m² | - |
| 1777896728 | 17.22° C | 79% | 1019.3 hPa | 0 mm | - | 25 W/m² | - |
| 1777896425 | 17.22° C | 80% | 1019.5 hPa | 0 mm | - | 19 W/m² | - |
| 1777896122 | 16.67° C | 80% | 1019 hPa | 0 mm | - | 17 W/m² | - |
| 1777895820 | 16.67° C | 81% | 1019.1 hPa | 0 mm | - | 12 W/m² | - |
| 1777895517 | 16.67° C | 81% | 1019.1 hPa | 0 mm | - | 9 W/m² | - |
| 1777895215 | 16.67° C | 81% | 1019.1 hPa | 0 mm | - | 6 W/m² | - |
| 1777894912 | 16.67° C | 81% | 1018.9 hPa | 0 mm | - | 4 W/m² | - |
| 1777894609 | 16.11° C | 81% | 1019.1 hPa | 0 mm | - | 1 W/m² | - |
| 1777894306 | 16.67° C | 81% | 1019 hPa | 0 mm | - | 1 W/m² | - |
| 1777894003 | 16.67° C | 80% | 1019.1 hPa | 0 mm | - | 0 W/m² | - |
| 1777893700 | 16.67° C | 80% | 1019.1 hPa | 0 mm | - | 0 W/m² | - |
* Rain latest hour (hover to see other rain measurements)
** Current wind speed in m/s (hover to see current wind gust speed)